TimeEDT,TemperatureF,Dew PointF,Humidity,Sea Level PressureIn,VisibilityMPH,Wind Direction,Wind SpeedMPH,Gust SpeedMPH,PrecipitationIn,Events,Conditions,WindDirDegrees,DateUTC
12:56 AM,36.9,32.9,86,29.80,4.0,West,10.4,-,N/A,,Overcast,280,2012-11-01 04:56:00
1:56 AM,36.9,34.0,89,29.80,6.0,West,11.5,-,0.01,,Overcast,280,2012-11-01 05:56:00
2:56 AM,36.9,34.0,89,29.80,6.0,West,10.4,-,N/A,,Overcast,270,2012-11-01 06:56:00
3:56 AM,36.9,32.9,86,29.80,6.0,West,10.4,-,N/A,,Overcast,270,2012-11-01 07:56:00
4:56 AM,36.9,32.9,86,29.80,6.0,West,9.2,-,N/A,,Overcast,260,2012-11-01 08:56:00
5:36 AM,37.4,33.8,87,29.78,7.0,West,10.4,-,N/A,,Overcast,260,2012-11-01 09:36:00
5:56 AM,36.9,32.9,86,29.81,6.0,West,11.5,-,N/A,,Overcast,270,2012-11-01 09:56:00
6:56 AM,37.9,32.9,82,29.81,7.0,West,9.2,-,N/A,,Overcast,270,2012-11-01 10:56:00
7:05 AM,37.4,33.8,87,29.79,7.0,West,9.2,-,N/A,,Overcast,270,2012-11-01 11:05:00
7:34 AM,37.4,33.8,87,29.79,7.0,West,11.5,-,N/A,,Mostly Cloudy,270,2012-11-01 11:34:00
7:56 AM,36.9,32.0,83,29.82,7.0,West,11.5,-,N/A,,Scattered Clouds,260,2012-11-01 11:56:00
8:56 AM,36.9,31.1,80,29.84,6.0,West,11.5,-,N/A,,Haze,260,2012-11-01 12:56:00
9:56 AM,38.8,30.0,71,29.84,7.0,West,12.7,-,N/A,,Clear,270,2012-11-01 13:56:00
10:56 AM,41.0,30.0,65,29.85,7.0,WNW,13.8,-,N/A,,Clear,290,2012-11-01 14:56:00
11:56 AM,41.9,30.0,63,29.86,7.0,West,19.6,-,N/A,,Clear,270,2012-11-01 15:56:00
12:56 PM,43.9,30.0,58,29.85,7.0,West,18.4,21.9,N/A,,Clear,280,2012-11-01 16:56:00
1:56 PM,45.9,30.0,54,29.83,7.0,WNW,19.6,26.5,N/A,,Clear,290,2012-11-01 17:56:00
2:56 PM,46.9,29.1,50,29.82,8.0,WNW,18.4,26.5,N/A,,Mostly Cloudy,290,2012-11-01 18:56:00
3:56 PM,46.9,27.1,46,29.81,7.0,West,18.4,-,N/A,,Overcast,270,2012-11-01 19:56:00
4:56 PM,47.8,25.2,41,29.81,7.0,West,12.7,-,N/A,,Mostly Cloudy,280,2012-11-01 20:56:00
5:56 PM,46.9,26.1,44,29.82,7.0,West,11.5,-,N/A,,Clear,280,2012-11-01 21:56:00
6:56 PM,41.0,27.1,58,29.83,8.0,West,8.1,-,N/A,,Clear,270,2012-11-01 22:56:00
7:56 PM,43.0,27.1,54,29.85,8.0,West,10.4,-,N/A,,Mostly Cloudy,260,2012-11-01 23:56:00
8:56 PM,41.9,28.0,58,29.85,8.0,West,6.9,-,N/A,,Overcast,260,2012-11-02 00:56:00
9:56 PM,43.0,27.1,54,29.86,8.0,West,8.1,-,N/A,,Overcast,280,2012-11-02 01:56:00
10:56 PM,43.0,27.1,54,29.86,9.0,West,8.1,-,N/A,,Overcast,280,2012-11-02 02:56:00
11:56 PM,43.0,28.0,56,29.86,8.0,WNW,8.1,-,N/A,,Overcast,290,2012-11-02 03:56:00